Location: Tamazert
(32.6352°N, 5.2072°W)
Time: 16:22:18
(UTC+00:00)

Transit 2A Rocket - Pass Details

Date: 06 October 2022
Orbit: 589 x 912 km, 66.7° (Epoch: 07 December)

Event Time Altitude Azimuth Distance (km) Brightness Sun altitude
Rises 04:54:15 0° 210° (SSW) 2,868 - -18.5°
Reaches altitude 10° 04:56:33 10° 212° (SSW) 1,940 - -18.0°
Exits shadow 04:58:18 24° 217° (SW) 1,256 5.8 -17.6°
Maximum altitude 05:00:51 70° 296° (WNW) 630 4.3 -17.1°
Drops below altitude 10° 05:05:06 10° 21° (NNE) 1,919 7.4 -16.2°
Sets 05:07:21 0° 23° (NNE) 2,834 8.3 -15.7°
